Location: Newark
(48.9320°N, 2.2664°E)
Time: 18:44:27
(UTC+00:00)

Tiros 1 despin weight - All Passes

Search period start: 16 February 2020 00:00
Search period end: 26 February 2020 00:00
Orbit: 594 x 642 km, 48.2° (Epoch: 15 February)

Date Brightness Start Highest point End Pass type
(mag) Time Alt. Az. Time Alt. Az. Time Alt. Az.
16 Feb - 02:12:37 10° S 02:15:47 19° SE 02:18:57 10° E visible
16 Feb - 03:52:24 10° WSW 03:56:43 56° SSE 04:01:03 10° E visible
16 Feb - 05:33:44 10° W 05:38:09 83° S 05:42:36 10° E visible
16 Feb - 07:15:16 10° W 07:19:35 54° SSW 07:23:56 10° ESE daylight
16 Feb - 08:57:25 10° W 09:00:30 19° SW 09:03:37 10° S daylight
17 Feb - 02:28:08 10° SSW 02:32:01 31° SSE 02:35:55 10° E visible
17 Feb - 04:08:48 10° WSW 04:13:12 72° SSE 04:17:37 10° E visible
17 Feb - 05:50:17 10° W 05:54:42 78° S 05:59:09 10° ESE visible
17 Feb - 07:31:53 10° W 07:35:59 37° SSW 07:40:06 10° SE daylight
17 Feb - 09:15:50 10° SW 09:16:37 10° SW 09:17:25 10° SW daylight
18 Feb - 01:05:12 10° S 01:07:35 14° SE 01:09:57 10° ESE night (unlit)
18 Feb - 02:44:08 10° SW 02:48:22 46° SSE 02:52:36 10° E visible
18 Feb - 04:25:18 10° W 04:29:43 82° S 04:34:10 10° E visible
18 Feb - 06:06:49 10° W 06:11:12 64° SSW 06:15:36 10° ESE visible
18 Feb - 07:48:41 10° W 07:52:16 24° SW 07:55:52 10° SSE daylight
19 Feb - 01:20:12 10° SSW 01:23:45 24° SE 01:27:18 10° E night (unlit)
19 Feb - 03:00:26 10° WSW 03:04:48 63° SSE 03:09:11 10° E visible
19 Feb - 04:41:51 10° W 04:46:16 82° S 04:50:42 10° E visible
19 Feb - 06:23:24 10° W 06:27:39 47° SSW 06:31:54 10° SE daylight
19 Feb - 08:05:58 10° WSW 08:08:27 15° SW 08:10:55 10° S daylight
20 Feb - 01:35:58 10° SW 01:40:02 37° SSE 01:44:06 10° E night (unlit)
20 Feb - 03:16:53 10° WSW 03:21:18 77° S 03:25:43 10° E visible
20 Feb - 04:58:23 10° W 05:02:48 73° SSW 05:07:13 10° ESE visible
20 Feb - 06:40:05 10° W 06:43:59 31° SSW 06:47:55 10° SSE daylight
21 Feb - 00:12:30 10° S 00:15:31 18° SE 00:18:31 10° E night (unlit)
21 Feb - 01:52:06 10° SW 01:56:25 53° SSE 02:00:44 10° E night (unlit)
21 Feb - 03:33:24 10° W 03:37:50 83° S 03:42:16 10° E visible
21 Feb - 05:14:57 10° W 05:19:17 57° SSW 05:23:37 10° ESE visible
21 Feb - 06:57:01 10° W 07:00:14 20° SW 07:03:27 10° S daylight
22 Feb - 00:27:54 10° SSW 00:31:44 29° SSE 00:35:33 10° E night (unlit)
22 Feb - 02:08:28 10° WSW 02:12:53 70° SSE 02:17:17 10° E visible
22 Feb - 03:49:58 10° W 03:54:23 79° S 03:58:48 10° E visible
22 Feb - 05:31:33 10° W 05:35:41 40° SSW 05:39:49 10° SE visible
22 Feb - 07:14:56 10° WSW 07:16:22 11° SW 07:17:48 10° SSW daylight
22 Feb - 23:05:13 10° SSE 23:07:19 13° SE 23:09:25 10° ESE night (unlit)
23 Feb - 00:43:51 10° SW 00:48:04 43° SSE 00:52:16 10° E night (unlit)
23 Feb - 02:24:58 10° W 02:29:24 81° S 02:33:50 10° E visible
23 Feb - 04:06:30 10° W 04:10:53 66° SSW 04:15:16 10° ESE visible
23 Feb - 05:48:19 10° W 05:51:59 26° SSW 05:55:40 10° SSE visible
23 Feb - 23:20:01 10° SSW 23:23:28 22° SE 23:26:55 10° E night (unlit)
24 Feb - 01:00:06 10° WSW 01:04:30 60° SSE 01:08:51 10° E night (unlit)
24 Feb - 02:41:31 10° W 02:45:57 82° S 02:50:23 10° E visible
24 Feb - 04:23:04 10° W 04:27:20 49° SSW 04:31:36 10° SE visible
24 Feb - 06:05:30 10° WSW 06:08:11 16° SW 06:10:52 10° S visible
24 Feb - 23:35:41 10° SW 23:39:44 34° SSE 23:43:46 10° E night (unlit)
25 Feb - 01:16:32 10° WSW 01:20:59 75° S 01:25:24 10° E night (unlit)
25 Feb - 02:58:03 10° W 03:02:29 75° S 03:06:54 10° ESE visible
25 Feb - 04:39:43 10° W 04:43:42 33° SSW 04:47:41 10° SE visible
25 Feb - 22:12:22 10° S 22:15:14 17° SE 22:18:05 10° E night (unlit)
